CAPE
0 0 0 0 0 0 0 0 0 146 173 132 71 5 0 0 0 0 1 13 558 684 738 826 846 847 431 183 79 41 25 21 12 8 6 6 6 5 4 4 3 2 2
0 0 0 0 0 0 0 0 0 57 107 0 0 0 1 0 0 0 0 0 35 351 591 592 425 254 148 28 12 11 7 3 4 8 8 2 3 2 3 5 5 6 6
0 0 0 0 0 0 0 0 0 64 2 0 0 0 0 0 1 0 1 0 0 0 1 50 47 11 6 10 7 5 4 4 2 4 9 15 13 5 4 3 3 4 4
0 0 0 0 0 0 0 0 5 1 1 1 0 0 1 0 1 0 0 1 1 1 0 4 3 4 4 5 5 5 6 8 6 10 10 14 9 1 2 3 2 2 1
0 0 0 0 0 0 0 0 0 0 0 0 0 0 0 0 0 1 0 0 0 0 0 0 0 5 13 6 7 9 6 4 6 3 10 7 3 4 2 2 1 1 1
0 0 0 0 0 0 0 0 0 0 0 0 0 0 0 0 0 0 0 0 0 0 0 0 0 0 6 11 3 2 4 5 10 11 4 4 1 3 3 2 1 4 4
0 0 0 0 0 0 0 3 8 0 0 0 0 0 0 0 0 0 0 0 0 0 0 0 0 0 0 0 8 2 3 21 17 5 4 1 1 1 1 2 6 5 5
0 0 0 0 0 0 0 0 0 0 0 0 0 0 1 0 0 0 0 0 0 0 0 0 0 0 0 0 0 0 2 11 6 5 1 3 2 1 1 2 2 3 6
0 0 0 0 0 0 0 0 0 0 0 0 0 0 0 0 0 0 0 0 0 0 0 0 0 0 0 0 0 0 0 4 4 4 2 4 4 3 3 5 5 3 2
0 0 0 0 0 0 0 0 0 0 0 0 0 1 4 0 0 0 0 0 0 0 0 0 0 0 0 0 0 0 0 0 0 5 3 2 2 1 9 12 5 4 14
0 0 0 0 0 0 0 0 0 0 0 0 0 0 0 0 0 0 0 0 0 0 0 0 0 0 0 0 0 0 0 0 0 2 4 2 3 2 2 3 11 7 16
0 0 0 0 0 0 0 0 0 0 0 0 0 0 0 0 0 36 0 0 0 0 0 0 0 0 0 0 0 0 0 0 0 1 1 3 3 5 5 6 15 27 31
0 0 0 0 0 0 0 0 0 0 0 0 0 0 0 0 0 0 6 0 0 0 0 0 0 0 0 0 0 0 0 0 0 0 0 1 2 3 4 17 27 15 12
0 0 0 0 0 0 0 0 0 0 0 0 0 0 0 0 0 0 0 0 0 0 0 0 0 0 0 0 0 0 0 0 0 0 0 0 2 2 3 3 5 7 7
0 0 0 0 0 0 0 0 0 0 0 0 0 0 0 0 0 0 0 0 0 0 0 0 0 0 0 0 0 0 0 0 0 0 0 3 5 5 2 2 3 4 8
0 0 0 0 0 0 0 0 0 0 0 0 0 0 0 0 0 0 0 0 0 0 1 0 0 0 0 0 0 0 0 0 0 0 0 1 5 7 5 2 5 4 5
0 0 0 0 0 0 0 0 0 0 0 0 0 0 0 0 0 0 0 0 0 0 0 0 0 0 0 0 0 0 0 0 0 0 0 0 0 1 0 0 2 1 4
0 0 0 7 6 2 0 0 0 0 0 0 0 0 0 0 0 0 0 0 0 0 0 0 0 0 0 0 0 0 0 0 0 0 1 0 1 5 0 0 0 1 1
0 0 0 0 0 1 0 0 0 0 0 0 0 0 0 0 0 0 0 0 0 0 0 0 0 0 0 0 0 0 0 0 0 4 2 1 5 13 7 7 9 5 2
0 0 0 0 0 0 0 0 0 0 0 0 0 0 0 0 0 0 0 0 0 0 0 0 0 0 0 0 0 0 1 0 0 0 1 0 6 7 8 4 5 8 6
0 0 0 0 0 0 0 0 0 0 0 0 0 0 0 0 0 0 0 0 0 0 0 0 0 0 0 0 0 0 1 0 0 0 0 0 0 0 3 1 5 8 9
0 0 0 0 0 0 0 0 0 0 0 0 0 0 0 0 0 0 0 0 0 0 0 0 0 0 0 0 0 0 0 0 1 0 0 0 0 5 0 0 0 2 2
0 0 0 0 0 0 0 0 0 0 0 0 0 0 0 0 0 0 0 0 0 0 0 0 0 0 0 0 0 0 0 0 0 0 0 0 2 1 0 3 1 0 1
0 0 0 0 0 0 0 0 0 0 0 0 0 0 0 0 0 0 0 0 0 0 0 1 0 0 0 0 0 0 0 0 0 0 2 0 0 0 0 0 5 3 1
0 0 0 0 0 0 0 0 0 0 0 0 0 0 0 0 0 0 0 0 0 0 0 0 1 3 3 0 0 0 0 0 0 0 0 0 0 0 0 0 0 5 3
0 0 0 0 0 0 0 0 0 0 0 1 0 0 0 0 0 0 0 0 0 0 0 0 0 0 0 2 3 0 0 0 0 0 0 0 0 0 0 0 0 0 0
CIN
0 0 0 0 0 0 0 0 0 -54 -18 -55 -146 -102 0 0 0 0 0 -125 -60 -20 -12 -1 0 0 -26 -27 -69 -146 -142 -128 0 0 0 0 0 0 0 0 0 0 0
0 0 0 0 0 0 0 0 0 -189 -74 0 0 0 0 0 0 0 0 0 -205 -40 0 0 -1 -24 -35 -82 -33 0 0 0 0 0 0 0 0 0 0 0 0 0 0
0 0 0 0 0 0 0 0 0 -270 -15 0 0 0 0 0 0 0 0 0 0 0 -3 -38 -40 -5 -4 0 0 0 0 0 0 0 0 0 0 0 0 0 0 0 0
0 0 0 0 0 0 0 0 -65 0 0 0 0 0 0 0 0 0 0 0 0 0 0 -2 0 0 0 0 0 0 0 0 0 0 0 0 0 -1 0 0 0 0 0
0 0 0 0 0 0 0 0 0 0 0 0 0 0 0 0 0 0 0 0 0 0 0 0 0 -5 0 0 0 0 0 0 0 0 0 0 0 -2 -1 -1 0 0 0
0 0 0 0 0 0 0 0 0 0 0 0 0 0 0 0 0 0 0 0 0 0 0 0 0 0 -5 0 0 0 0 0 0 0 0 0 0 0 0 0 0 0 0
0 0 0 0 0 0 0 -167 -142 0 0 0 0 0 0 0 0 0 0 0 0 0 0 0 0 0 0 0 0 0 0 0 0 -1 0 0 -1 0 0 0 0 0 0
0 0 0 0 0 0 0 0 0 0 0 0 0 0 0 0 0 0 0 0 0 0 0 0 0 0 0 0 0 0 0 0 0 0 0 0 0 0 0 0 0 0 0
0 0 0 0 0 0 0 0 0 0 0 0 0 0 0 0 0 0 0 0 0 0 0 0 0 0 0 0 0 0 0 0 0 0 0 0 0 0 0 0 0 -1 -1
0 0 0 0 0 0 0 0 0 0 0 0 0 -10 -52 0 0 0 0 0 0 0 0 0 0 0 0 0 0 0 0 0 0 0 0 0 0 0 0 0 0 0 -1
0 0 0 0 0 0 0 0 0 0 0 0 0 0 0 0 0 0 0 0 0 0 0 0 0 0 0 0 0 0 0 0 0 0 0 0 0 0 0 0 0 -1 0
0 0 0 0 0 0 0 0 0 0 0 0 0 0 0 0 0 -8 0 0 0 0 0 0 0 0 0 0 0 0 0 0 0 0 -1 0 0 0 0 0 0 0 0
0 0 0 0 0 0 0 0 0 0 0 0 0 0 0 0 0 0 -53 0 0 0 0 0 0 0 0 0 0 0 0 0 0 0 0 0 0 0 0 0 0 0 0
0 0 0 0 0 0 0 0 0 0 0 0 0 0 0 0 0 0 0 0 0 0 0 0 0 0 0 0 0 0 0 0 0 0 0 0 0 0 0 0 0 0 0
0 0 0 0 0 0 0 0 0 0 0 0 0 0 0 0 0 0 0 0 0 0 0 0 0 0 0 0 0 0 0 0 0 0 0 0 0 0 0 0 0 0 0
0 0 0 0 0 0 0 0 0 0 0 0 0 0 0 0 0 0 0 0 0 0 -4 0 0 0 0 0 0 0 0 0 0 0 0 0 0 0 0 0 0 0 0
0 0 0 0 0 0 0 0 0 0 0 0 0 0 0 0 0 0 0 0 0 0 0 0 0 0 0 0 0 0 0 0 0 0 0 0 0 -2 0 0 0 0 0
0 0 0 -103 -108 -98 0 0 0 0 0 0 0 0 0 0 0 0 0 0 0 0 0 0 0 0 0 0 0 0 0 0 0 0 0 0 0 0 -1 0 0 0 0
0 0 0 0 0 -77 0 0 0 0 0 0 0 0 0 0 0 0 0 0 0 0 0 0 0 0 0 0 0 0 0 0 0 0 0 0 0 0 0 -1 0 0 0
0 0 0 0 0 0 0 0 0 0 0 0 0 0 0 0 0 0 0 0 0 0 0 0 0 0 0 0 0 0 0 0 0 0 0 0 -1 0 0 0 0 0 0
0 0 0 0 0 0 0 0 0 0 0 0 0 0 0 0 0 0 0 0 0 0 0 0 0 0 0 0 0 0 0 0 0 0 0 0 0 0 -4 0 0 0 0
0 0 0 0 0 0 0 0 0 0 0 0 0 0 0 0 0 0 0 0 0 0 0 0 0 0 0 0 0 0 0 0 0 0 0 0 0 0 0 0 0 0 0
0 0 0 0 0 0 0 0 0 0 0 0 0 0 0 0 0 0 0 0 0 0 0 0 0 0 0 0 0 0 0 0 0 0 0 0 0 0 0 0 0 0 0
0 0 0 0 0 0 0 0 0 0 0 0 0 0 0 0 0 0 0 0 0 0 0 0 0 0 0 0 0 0 0 0 0 0 0 0 0 0 0 0 0 0 0
0 0 0 0 0 0 0 0 0 0 0 0 0 0 0 0 0 0 0 0 0 0 0 0 0 0 0 0 0 0 0 0 0 0 0 0 0 0 0 0 0 0 0
0 0 0 0 0 0 0 0 0 0 0 0 0 0 0 0 0 0 0 0 0 0 0 0 0 0 0 0 0 0 0 0 0 0 0 0 0 0 0 0 0 0 0
Wind_Speed
4 4 3 4 2 3 5 6 5 3 6 5 8 9 8 6 8 5 5 16 9 6 8 8 17 19 18 19 16 18 16 14 12 11 11 11 10 11 12 11 11 12 12
4 4 4 3 1 3 2 4 4 3 4 6 8 10 9 8 8 9 6 9 17 17 16 19 20 17 16 17 16 15 15 13 13 12 11 11 11 11 12 12 13 13 13
6 5 3 2 3 2 4 3 4 5 5 7 9 9 6 8 7 9 7 6 9 16 14 16 18 16 13 15 14 13 12 11 13 10 10 13 14 13 13 13 14 13 13
6 4 4 4 2 3 1 2 5 7 8 6 6 7 6 6 7 7 7 7 6 6 10 11 15 13 12 13 14 13 13 12 11 12 12 13 12 12 11 11 10 10 10
4 3 3 3 3 2 1 3 4 6 7 6 7 5 5 5 6 5 7 9 6 7 6 14 17 10 9 12 13 12 11 10 9 8 10 10 9 10 8 8 7 7 8
4 4 3 2 3 2 4 4 5 4 6 7 7 6 4 4 5 4 4 7 5 6 5 7 5 7 8 8 10 11 9 8 10 10 8 8 6 7 6 6 6 6 6
4 4 3 3 3 3 3 4 3 7 4 4 5 3 3 3 3 2 4 3 5 4 3 3 4 4 4 14 7 10 8 10 9 9 7 7 5 6 6 5 5 5 6
3 4 5 4 4 3 5 5 4 2 3 5 3 2 3 1 1 2 3 3 4 3 4 2 3 6 3 4 8 9 8 8 11 7 5 6 5 4 5 4 4 5 6
4 4 4 4 4 4 3 2 3 3 1 2 4 2 2 2 2 1 1 0 2 2 3 4 1 6 5 5 6 8 9 6 10 10 3 5 5 5 4 5 6 5 4
4 4 4 3 4 3 3 1 1 2 3 1 2 2 1 4 4 2 1 1 1 1 2 2 2 4 4 4 8 9 9 8 6 6 7 4 4 4 5 5 4 4 4
4 4 4 4 3 3 3 3 1 1 1 2 1 1 2 0 2 2 2 1 2 3 3 3 3 4 5 5 4 6 8 7 7 4 5 3 3 3 4 4 5 4 6
4 5 5 5 5 3 4 2 2 2 1 1 0 1 1 1 1 1 2 1 2 2 3 4 4 4 5 6 8 9 9 9 8 5 5 3 3 3 4 4 5 5 11
4 6 7 6 4 4 4 4 3 3 2 2 1 1 2 1 1 2 3 3 3 0 2 3 3 4 6 6 7 10 11 9 8 7 6 6 5 6 5 4 7 10 11
7 7 7 6 7 6 5 5 2 3 4 2 1 1 1 1 2 1 1 3 2 3 2 4 3 4 5 6 10 15 8 12 9 7 6 5 5 7 7 10 11 10 10
6 7 7 7 6 7 6 5 3 3 4 3 2 1 0 2 2 2 2 2 3 3 6 4 3 6 7 7 10 7 7 14 12 9 7 5 5 7 8 10 10 8 10
8 10 8 7 7 7 7 7 5 4 5 3 3 3 1 1 3 2 1 1 2 2 3 2 3 5 10 8 13 8 8 13 13 11 9 8 8 8 10 10 8 8 9
7 7 7 7 6 6 6 6 6 5 6 6 3 5 4 3 2 2 3 2 1 1 1 1 1 8 9 12 10 8 8 6 7 12 10 8 8 10 11 11 9 7 10
4 6 5 5 6 6 7 7 7 6 6 6 6 5 5 3 2 2 1 2 2 1 3 2 2 6 5 9 11 11 8 7 6 10 10 9 8 10 11 11 10 8 10
4 3 4 3 3 4 4 6 7 6 5 5 5 5 5 4 3 3 1 1 2 3 1 3 3 3 5 7 10 8 7 7 6 13 11 9 9 11 11 11 10 10 9
7 5 5 2 1 1 3 3 2 4 6 7 8 9 7 7 5 5 6 5 4 2 2 3 4 5 5 5 7 7 7 5 7 7 8 6 9 11 10 9 9 10 10
7 8 8 9 9 8 6 4 6 6 7 7 8 10 9 10 13 9 4 4 5 3 3 3 3 3 4 7 9 6 7 6 4 3 5 4 3 4 5 7 8 10 10
9 9 9 9 8 6 9 8 7 5 5 7 8 7 7 9 10 10 11 12 9 3 3 1 2 7 6 7 5 8 8 7 4 3 4 3 4 5 4 4 9 9 10
7 8 7 6 6 5 11 10 13 7 6 6 6 6 6 5 6 5 10 11 12 13 9 1 2 2 5 9 8 10 10 9 4 6 6 4 3 5 3 5 11 10 9
6 5 5 5 5 5 10 11 13 9 8 8 8 6 7 5 5 5 4 5 5 5 5 3 1 3 4 9 11 11 10 6 6 7 5 3 5 4 3 2 10 10 10
4 4 3 5 6 3 7 10 8 7 8 8 7 6 6 5 5 4 3 4 4 2 4 3 3 4 7 5 9 8 9 8 4 3 3 4 3 3 2 1 1 9 11
4 3 4 4 6 4 8 9 7 5 7 5 5 5 8 4 4 4 2 4 4 1 1 3 3 3 5 7 3 6 7 8 5 2 3 4 7 4 4 1 1 1 1
Wind_Direction
110 121 100 44 68 251 141 133 125 185 327 38 52 56 50 44 58 31 8 23 55 104 128 132 122 113 109 106 106 103 97 94 88 76 75 79 79 81 81 80 81 79 76
110 101 128 117 174 185 196 164 155 217 108 91 68 55 43 31 47 42 26 37 53 69 95 108 99 99 98 97 90 86 93 98 96 84 85 83 82 80 81 81 77 76 74
132 99 102 206 223 171 128 71 255 106 85 85 73 61 58 52 36 53 30 28 44 51 73 89 97 100 101 100 100 96 97 100 100 108 97 88 79 77 75 77 77 74 77
106 123 173 208 217 247 251 168 100 91 91 74 64 56 39 32 39 66 63 47 31 46 38 72 106 107 114 110 105 103 101 96 94 96 91 86 81 74 70 71 75 77 75
120 142 137 134 176 137 70 80 81 113 105 100 87 70 58 42 30 22 80 69 36 52 50 43 52 72 97 110 108 103 101 101 100 95 91 81 75 67 62 64 62 63 72
120 94 89 47 38 44 32 51 77 77 121 113 92 68 58 49 25 17 359 104 105 80 64 81 39 38 64 103 113 110 102 93 102 94 82 79 79 82 69 59 61 67 75
95 113 124 93 40 69 97 72 96 101 95 128 120 105 62 43 53 19 341 26 109 110 115 124 90 62 41 47 81 114 106 104 101 93 90 88 76 76 70 56 58 67 77
115 93 105 89 71 72 43 49 59 141 121 197 121 147 160 151 108 17 329 10 42 56 91 108 151 126 104 78 74 55 118 131 112 105 118 103 93 78 75 79 62 59 56
100 107 113 121 101 96 92 76 57 52 358 227 256 143 129 215 121 232 288 327 46 77 94 29 21 134 139 111 77 55 42 121 126 127 126 115 113 101 84 77 78 63 75
132 133 131 104 76 64 56 27 118 140 111 300 318 336 321 139 181 200 258 267 268 209 149 165 100 93 90 105 114 94 68 77 114 135 131 137 102 105 101 90 93 79 57
152 164 150 137 156 167 190 185 142 162 130 146 167 2 18 185 103 117 226 251 245 205 206 212 156 129 115 94 82 92 79 83 96 117 113 127 115 111 109 102 111 97 92
180 190 180 182 196 185 181 190 174 155 185 115 96 60 115 140 320 248 129 161 284 221 183 191 172 129 128 131 136 126 103 91 88 92 96 94 87 74 90 83 87 103 87
194 200 182 189 188 187 186 171 178 188 192 170 168 220 178 197 187 222 149 157 155 277 197 221 174 131 137 135 139 129 108 98 104 107 95 75 66 75 79 87 89 80 77
191 182 179 184 196 189 181 172 175 209 197 202 216 311 327 2 70 78 59 143 148 146 200 220 165 153 144 139 146 135 123 113 106 106 98 100 90 85 73 72 68 66 73
176 175 183 184 189 178 179 179 197 227 180 181 200 241 234 322 60 65 48 97 166 174 219 207 163 158 152 147 138 129 128 132 123 112 102 85 105 101 86 78 72 75 79
160 170 180 184 184 182 183 181 209 225 194 193 191 188 206 64 61 42 64 52 67 147 242 152 200 132 148 141 146 135 136 133 125 114 102 92 88 94 97 88 77 73 76
151 165 179 183 188 190 194 188 208 214 204 199 177 181 186 138 109 39 34 54 62 76 218 323 82 136 138 145 146 137 133 132 131 129 119 103 98 98 98 94 82 69 65
158 164 175 182 192 198 196 203 202 204 197 200 203 197 163 137 68 14 323 320 330 289 146 177 122 144 134 144 141 136 144 142 133 140 131 132 121 124 116 107 102 86 76
126 149 140 165 198 230 214 210 208 206 188 151 105 92 78 73 54 352 31 0 43 19 117 160 139 106 115 143 137 138 145 137 138 142 139 140 143 120 120 114 110 111 102
76 50 27 351 315 301 23 357 195 163 105 105 93 86 77 77 61 32 50 17 1 42 46 116 120 133 129 152 143 139 138 152 149 153 148 142 138 132 129 131 120 112 114
62 57 47 40 42 47 22 36 79 102 117 106 92 91 87 91 80 67 79 39 24 19 73 149 143 136 143 158 174 164 148 148 161 160 151 151 110 107 127 120 117 110 96
57 57 50 53 45 45 14 11 104 101 101 107 104 99 106 92 84 86 87 73 61 43 37 83 193 180 176 178 163 159 152 157 172 191 132 160 130 126 127 130 138 127 121
51 56 51 63 66 48 40 53 77 77 81 87 106 117 101 86 92 83 87 82 68 58 52 342 303 186 180 178 170 173 175 176 156 154 139 163 146 125 134 137 138 136 131
57 55 53 63 79 62 66 65 74 84 80 68 65 87 101 84 66 79 93 83 67 66 43 27 40 310 296 192 190 187 174 143 113 146 146 125 128 112 110 119 139 142 129
79 70 63 78 82 48 82 88 87 88 87 78 68 79 88 83 54 44 95 115 86 41 53 3 10 34 14 221 165 143 159 159 141 157 164 110 151 106 106 129 158 141 131
96 93 76 81 106 84 67 110 112 110 102 97 79 73 92 96 70 48 101 141 102 295 24 356 357 354 23 29 86 185 166 168 129 115 155 105 144 147 149 219 189 113 127